    Orbital elements:
    2016 FB                                                  Earth MOID = 0.0329 AU
    Epoch 2016 Jan. 13.0 TT = JDT 2457400.5                 MPC
    M 328.35427              (2000.0)            P               Q
    n   0.70981919     Peri.  155.40155     -0.90683245     -0.42148645
    a   1.2446222      Node   359.65025     +0.31075161     -0.66533431
    e   0.1846679      Incl.   19.31076     +0.28476015     -0.61618132
    P   1.39           H   23.7           G   0.15           U   6
    Residuals in seconds of arc
    160316 703  0.6-  0.8+    160316 L04  0.3+  0.5-    160317 H01  0.3-  0.0
    160316 703  0.5-  0.1-    160316 L04  0.0   0.4-    160317 H01  0.1-  0.0
    160316 703  0.7-  1.0-    160316 L04  0.1-  0.4-    160317 H21  0.1-  0.1+
    160316 703  0.6-  0.5-    160316 300  0.7+  0.7+    160317 H21  0.1+  0.2-
    160316 H01  0.1-  0.0     160316 300  0.3+  0.2+    160317 H21  0.1+  0.2-
    160316 703  0.1+  0.3-    160316 300  0.4+  0.9+    160317 H21  0.1+  0.1-
    160316 H01  0.2-  0.2-    160316 300  0.0   0.3-    160317 H21  0.2+  0.1-
    160316 703  0.0   0.9-    160316 033  0.2-  0.7-    160317 926  0.3+  0.4-
    160316 703  0.3+  0.4+    160316 033  0.2+  0.1-    160317 926  1.0+  0.5+
    160316 H01  0.1-  0.1+    160316 033  0.0   0.4-    160317 926 (1.7+  1.1+)
    160316 703  0.1+  1.4+    160316 246  0.3-  0.0     160317 926  0.6-  0.7-
    160316 H01  0.1+  0.1-    160316 246  1.0-  0.1-    160317 926  0.2-  0.6+
    160316 703  0.6-  0.1+    160316 246  0.7-  0.4+    160317 926  0.0   0.4+
    160316 703  0.2+  0.1+    160316 246  0.2+  0.5-    160317 926  0.3+  0.2+
    160316 703  0.5+  0.3+    160316 246  0.2+  0.3-    160317 926  0.2+  0.2+
    160316 703  0.4+  0.1+    160316 246  0.1-  0.1+    160317 926  0.0   0.0
    160316 V37  0.1+  0.1-    160316 246  0.7-  0.2+    160317 926  0.0   0.2+
    160316 V37  0.2+  0.1-    160316 246  0.0   0.5-    160317 926  0.5-  0.0
    160316 V37  0.0   0.1-    160316 246  0.0   0.0     160317 926  0.2+  0.2+
    160316 V37  0.0   0.1+    160316 033  0.1+  0.2-    160317 926  0.0   0.3+
    160316 V37  0.0   0.1+    160316 033  0.1-  0.3-    160317 926  0.4-  0.0
    160316 V37  0.0   0.0     160316 033  0.1+  0.1+    160317 926  0.1-  0.2-
    160316 300  0.3+  0.3+    160317 033  0.1+  0.1-    160317 L04  0.1-  0.1-
    160316 300  0.3+  0.4+    160317 033  0.0   0.2-    160317 L04  0.0   0.0
    160316 300  0.5+  0.2+    160317 033  0.1+  0.2+    160317 L04  0.1+  0.1+
    160316 300  0.2+  0.4+    160317 H01  0.1+  0.0
    160316 300  0.4+  0.2-    160317 H01  0.3-  0.0
    
    Ephemeris:
    2016 FB                  a,e,i = 1.24, 0.18, 19                  q = 1.0148
    Date    TT    R. A. (2000) Decl.     Delta      r     Elong.  Phase     V
    2016 02 16    18 02 25.0 +72 29 07   0.1974  1.0177    93.1    75.7    22.9
    ...
    2016 03 02    16 25 38.1 +75 29 12   0.1170  1.0153    98.6    74.8    21.7
    ...
    2016 03 10    13 27 34.2 +73 03 57   0.07356 1.0188   108.4    67.6    20.5
    ...
    2016 03 16    11 05 40.1 +53 39 21   0.04640 1.0237   127.5    50.4    19.0
    2016 03 17    10 49 33.2 +47 21 55   0.04326 1.0246   132.3    45.9    18.7
    2016 03 18    10 35 25.9 +40 03 20   0.04083 1.0257   137.3    41.2    18.4
    ...
    2016 03 24    09 40 43.7 -09 03 32   0.04540 1.0328   141.3    37.1    18.6
    ...
    2016 04 01    09 09 39.9 -38 18 42   0.08323 1.0449   121.2    54.9    20.4
    ...
    2016 04 16    08 57 17.8 -51 32 59   0.1695  1.0742   110.3    61.2    22.2
    
    A. U. Tomatic                (C) Copyright 2016 MPC           M.P.E.C. 2016-F26
    

    Read MPEC 2016-F25 Read MPEC 2016-F27


    MPEC number:

    Enter an MPEC number in one of the following forms:

    • 1997-B01 (the full form)
    • J97B01 (the packed version of the full form)
    • B01 (the abbreviated form)